Regional Weather Roundup
Issued by NWS Wakefield, VA

Home | Current Version | Previous Version | Graphics & Text | Print | Product List | Glossary On
Versions: 1 2 3 4 5 6 7 8 9 10 11 12 13 14 15 16 17 18 19 20 21 22 23 24 25 26 27 28 29 30 31 32 33 34 35 36 37 38 39 40 41 42 43 44 45 46 47 48 49 50
000
ASUS41 KAKQ 282010
RWRAKQ

REGIONAL WEATHER ROUNDUP
NATIONAL WEATHER SERVICE WAKEFIELD VA
300 PM EST SUN DEC 28 2014

Note: "fair" indicates few or no clouds below 12,000 feet with no
significant weather and/or obstructions to visibility. * = Denotes
station may not report precipitation (e.g., rain,snow,etc.),
thunder or fog.

VAZ042-051-052>054-056-282100-
NORTHERN VIRGINIA

CITY           SKY/WX    TMP DP  RH WIND       PRES   REMARKS
WASH NATIONAL  LGT RAIN  57  43  59 CALM      29.97R
DULLES         LGT RAIN  53  48  83 CALM      29.96R
FORT BELVOIR   CLOUDY    54  47  76 S1        29.98R
QUANTICO       LGT RAIN  52  40  63 W3        29.99R
FREDERICKSBRG* LGT RAIN  54  48  79 CALM      29.97R
STAFFORD*      RAIN      55  46  72 CALM      30.01R
WARRENTON      RAIN      54  53  99 CALM      29.97R
CULPEPER*      LGT RAIN  54  50  87 CALM      29.98R
MANASSAS*      CLOUDY    54  50  87 CALM      29.97R
LEESBURG*      DRIZZLE   55  50  82 CALM      29.97R
WINCHESTER     CLOUDY    57  37  47 N3        29.95S
FRONT ROYAL*   CLOUDY    55  39  54 CALM      29.94R
LURAY*         CLOUDY    54  45  71 NE3       29.95R
$$

VAZ048-049-060>072-079>083-282100-
CENTRAL AND SOUTH CENTRAL VIRGINIA

CITY           SKY/WX    TMP DP  RH WIND       PRES   REMARKS
RICHMOND       CLOUDY    62  46  55 SW6       29.96R
CHESTERFIELD*  CLOUDY    61  41  48 W6        29.97R
PETERSBURG*    LGT RAIN  62  50  64 SW6       29.97F
HANOVER        CLOUDY    61  46  57 SW3       29.96R
TAPPAHANNOCK*  LGT RAIN  63  40  42 CALM      29.96R
QUINTON*       CLOUDY    60  49  65 CALM      29.96R
CHARLOTTSVILLE LGT RAIN  52  45  77 CALM      29.95R
GORDONSVILLE*  CLOUDY    53  45  75 CALM      29.95R
ORANGE*        RAIN      52  45  76 CALM      29.98R
LOUISA*        CLOUDY    55  48  76 CALM      29.94R
BUMPASS*       CLOUDY    53  51  93 N3        29.96R
FARMVILLE*     DRIZZLE   61  47  61 CALM      29.95S
CREWE*         CLOUDY    59  46  62 CALM      29.95F
FORT PICKETT*  CLOUDY    59  49  69 SW3       29.96S
CHASE CITY*    CLOUDY    62  54  75 SW3       29.98R
CLARKSVILLE*   CLOUDY    61  52  72 CALM      29.98R
SOUTH HILL*    CLOUDY    61  54  76 SW6       30.03R
LAWRENCEVILLE* CLOUDY    62  55  77 SW3       29.97S
EMPORIA*       CLOUDY    63  54  72 SW5       29.99S
$$

VAZ088>098-282100-
SOUTHEAST VIRGINIA

CITY           SKY/WX    TMP DP  RH WIND       PRES   REMARKS
NORFOLK        CLOUDY    65  53  65 W8        29.96S
VIRGINIA BEACH CLOUDY    66  55  67 SW14      29.95F
NORFOLK NAVAL  CLOUDY    67  54  63 SW6       29.97S
WEST POINT*    CLOUDY    63  47  56 W6        29.97R
SALUDA*        CLOUDY    61  49  65 W6        29.95R
NEWPORT NEWS   CLOUDY    66  53  63 SW12      29.96R
LANGLEY AFB    CLOUDY    62  54  74 W9        29.95F
FORT EUSTIS    CLOUDY    62  62  99 SW6       29.95R
WILLIAMSBURG*  CLOUDY    64  55  72 W7        29.97R
HR EXEC AP*    CLOUDY    64  54  68 SW12      29.99R
FRANKLIN*      CLOUDY    64  55  72 W7        29.97S
WAKEFIELD      CLOUDY    63  54  72 SW6       29.97R
$$

VAZ020-022-025-037-045-282100-
WEST CENTRAL AND SOUTHWEST VIRGINIA

CITY           SKY/WX    TMP DP  RH WIND       PRES   REMARKS
STAUNTON*      DRIZZLE   54  47  78 SW6       29.96S
WAYNESBORO*    CLOUDY    53  47  78 SW5       29.95F
HOT SPRINGS VA LGT RAIN  43  43 100 W13       29.95R VSB<1/4
LYNCHBURG      CLOUDY    56  44  64 SW6       29.98R
DANVILLE       CLOUDY    60  50  69 W6        29.99R
SOUTH BOSTON*  CLOUDY    60  50  68 SW6       29.99R
MARTINSVILLE   CLOUDY    58  45  60 SW3       30.02R
ROANOKE        CLOUDY    54  48  80 SW7       30.01R
BLACKSBURG     LGT RAIN  48  47  97 W3        30.05R
DUBLIN*        LGT RAIN  51  51 100 CALM      30.04R
MARION*        LGT RAIN  48  46  94 W9        30.07R
HILLSVILLE*    CLOUDY    49  48  97 NW3       30.02S
RICHLANDS*     RAIN      46  44  93 SW3       30.04F
WISE*          FOG       46  46 100 N5        30.06R VSB 1/2
ABINGDON*      DRIZZLE   48  47  97 W3        30.05F
$$

MDZ021>025-VAZ099-100-282100-
SOUTHERN MARYLAND AND THE DELMARVA PENINSULA

CITY           SKY/WX    TMP DP  RH WIND       PRES   REMARKS
PATUXENT RIVER LGT RAIN  56  46  69 CALM      29.96R
BAY BRIDGE APT LGT RAIN  52  43  71 CALM      29.97R
LEONARDTOWN    CLOUDY    55  43  62 CALM      29.98R
DOVER          CLOUDY    56  43  61 SW3       29.93F
GEORGETOWN     CLOUDY    58  43  57 CALM      29.95S
EASTON         LGT RAIN  55  46  71 CALM      29.99S
CAMBRIDGE      CLOUDY    55  46  71 CALM      29.96R
SALISBURY      CLOUDY    60  42  51 SW3       29.95S
OCEAN CITY     CLOUDY    58  43  57 W3        29.96R
WALLOPS ISLAND CLOUDY    57  45  64 NW3       29.96S
ACCOMACK*      CLOUDY    55  46  71 W3        29.96R
$$

NCZ012>017-030>032-282100-
NORTH CENTRAL AND EASTERN NORTH CAROLINA

CITY           SKY/WX    TMP DP  RH WIND       PRES   REMARKS
ROANOKE RAPIDS CLOUDY    61  54  77 SW12      29.98S
RALEIGH        CLOUDY    61  54  77 SW10      30.01S
ELIZABETH CITY PTSUNNY   69  56  62 W15       29.99S
AHOSKIE*       CLOUDY    63  56  78 CALM      29.99S
EDENTON*       PTSUNNY   63  55  73 W8        30.00S
CURRITUCK*     PTSUNNY   66  53  62 SW10      29.99S
KILL DEVIL HLS CLOUDY    63  56  79 SW8       29.99S
MANTEO         CLOUDY    61  54  77 SW3       30.01S
CAPE HATTERAS  CLOUDY    61  57  87 CALM      30.03R
TARBORO*       CLOUDY    63  57  80 SW6       30.01F
GOLDSBORO      PTSUNNY   64  63  97 W2        29.99F
WASHINGTON     CLOUDY    65  56  74 W9        30.02S
GREENVILLE     PTSUNNY   64  57  77 W6        30.03S
NEW BERN       CLOUDY    74  58  57 SW9       30.01F
WILMINGTON     MOSUNNY   74  59  59 SW14G22   30.01S
$$

VAZ048-282100-
ELSEWHERE

CITY           SKY/WX    TMP DP  RH WIND       PRES   REMARKS
HARRISBURG PA  CLOUDY    49  43  80 NW3       29.95R
BALTIMORE      LGT RAIN  57  42  57 NW5       29.96R
ANNAPOLIS      LGT RAIN  49  42  77 CALM      29.95R
ANDREWS AFB    LGT RAIN  55  45  69 W5        29.97R
PHILADELPHIA   CLOUDY    56  40  55 SW6       29.94R
HENDERSON NC   CLOUDY    61  53  74 SW8       29.99R
GREENSBORO     CLOUDY    60  53  77 W10       29.99S
ROCKY MOUNT    CLOUDY    62  56  80 S7        30.00F
$$

VAZ100-282100-
MARINE

STATION/POSITION TIME  TEMP    WIND        PRES    WAVE   SWELL
                       AIR SEA DIR/SP/G            HT/PER HT/PER
                 (UTC) (F)     (DEG/KT/KT) (MB)    (FT/S) (FT/S)
CAPE MAY NJ      2000   49 47  320/  2/  3 1013.6S
LEWES DE         2000   52 44  310/  5/  7 1014.0R
15NM E FENWICK I 2000   48 46              1013.9R   4/ 6
OCEAN-CITY-INLET 2000   57 45  280/  4/  5 1013.9R
WACHAPREAGUE VA  2000   61 48  280/  3/  7 1014.1F
THOMAS POINT MD  2000   49 43  170/  7/  7 1015.5R
GOOSES REEF MD   2000   52     VRB  4/  4  1013.4R
COVE POINT MD    2000   55     250/  2/  3 1014.3R
SOLOMONS ISLAND  2000      44                N/A
BISHOPS HEAD MD  2000   52 47  210/  2/  3 1014.1R
PINEY POINT MD   2000          310/  2/  2   N/A
POTOMAC MD       2000   49     100/  4/  6 1013.6R
CAMBRIDGE MD     2000   48 42  340/  2/  3 1014.0R
LEWISETTA VA     2000             CALM       N/A
RAPPAHANNOCK LGT 2000          340/  4/  5 1015.0R
STINGRAY PT      2000   51     330/  2/  4 1015.0R
YORK RVR RNG VA  2000   59     250/  9/ 10 1013.6R
YORKTOWN VA      2000   63 46  240/  8/ 10 1013.9R
JAMESTOWN VA     2000   57     280/  6/  8   N/A
DOMINION TERM VA 2000   56     250/ 12/ 13 1014.3S
KIPTOPEKE VA     2000      51  260/  6/  9   N/A
CHES BAY BRIDGE  2000   59 46  230/ 12/ 14 1013.7S
CAPE HENRY VA    2000   64     250/  8/ 12 1013.1R
CHESAPEAKE LGHT  1900   59     250/ 15/ 16 1014.9F
WILLOUBY STN VA  2000   58     230/  9/ 10 1014.7S
S CRANEY ISL VA  2000          240/ 11/ 15 1014.2F
CAPE HENRY BUOY  2000      48                N/A     2/13   2/13
1ST LANDING BUOY 2000   55     260/ 10/ 12 1014.1R
CAPE CHARLES BUO 2000      48                N/A     2/13   2/13
64NM E OF VA BCH 2000   56 53  220/ 12/ 14 1014.9F   3/13   3/13
DUCK PIER NC     2000   62 49  240/ 11/ 14 1014.8R
44100 DUCK FRF   2000      51                N/A     2/13   2/13
44056 DUCK FRF   2000      49                N/A     2/14   2/14
OREGON INLET NC  2000   56 53  210/  4/  4 1016.1S
HATTERAS NC      2000   65 54  220/  4/  6 1017.1R
DIAMOND SHLS NC  2000   70                 1016.7R   4/ 4
CAPE LOOKOUT NC  1900   65     250/  7/  9 1016.9F
$$


USA.gov is the U.S. government's official web portal to all federal, state and local government web resources and services.